When you browse on this site, cookies collect data to enhance your experience and personalize the content and advertising you see.
Visit our Privacy Policy to learn more. By continuing to use the site, you agree to this use of cookies and data.
  • Em Portugal
  • Lista de países
  • Para 7 dias
  • Temperatura da água
  • Mapas de satélite
  • Mapa do tempo
  • Widgets de tempo
  • user-avatar
    Iniciar Sessão

    Previsão horária em Szczytno

    Hoje, 11 Dezembro, Terça-feira

    Tempo Temperatura Precipitação Vento Pressão Humidade
    00:00 0°C° 0.2 mm 4 m/s 740 mmHg 86%
    01:00 0°C° 0 mm 4 m/s 740 mmHg 86%
    02:00 +1°C° 0.4 mm 3 m/s 740 mmHg 87%
    03:00 +2°C° 0.4 mm 3 m/s 740 mmHg 87%
    04:00 +2°C° 0.4 mm 3 m/s 740 mmHg 88%
    05:00 +1°C° 0.1 mm 3 m/s 740 mmHg 89%
    06:00 +1°C° 0.1 mm 3 m/s 741 mmHg 90%
    07:00 +1°C° 0 mm 2 m/s 741 mmHg 92%
    08:00 +2°C° 0 mm 2 m/s 742 mmHg 90%
    09:00 +2°C° 0 mm 2 m/s 742 mmHg 89%
    10:00 +1°C° 0 mm 3 m/s 743 mmHg 87%
    11:00 +2°C° 0.1 mm 3 m/s 743 mmHg 85%
    12:00 +2°C° 0.1 mm 3 m/s 744 mmHg 82%
    13:00 +2°C° 0 mm 3 m/s 744 mmHg 81%
    14:00 +2°C° 0.1 mm 3 m/s 745 mmHg 83%
    15:00 +3°C° 0.1 mm 2 m/s 745 mmHg 85%
    16:00 +2°C° 0.1 mm 2 m/s 746 mmHg 87%
    17:00 +2°C° 0 mm 2 m/s 746 mmHg 89%
    18:00 +2°C° 0 mm 2 m/s 747 mmHg 91%
    19:00 +1°C° 0 mm 2 m/s 747 mmHg 93%
    20:00 +1°C° 0 mm 2 m/s 748 mmHg 92%
    21:00 +1°C° 0 mm 2 m/s 748 mmHg 91%
    22:00 +1°C° 0 mm 2 m/s 749 mmHg 90%
    23:00 +1°C° 0 mm 2 m/s 749 mmHg 90%

    Amanhã, 12 Dezembro, Quarta-feira

    Tempo Temperatura Precipitação Vento Pressão Humidade
    00:00 +1°C° 0 mm 2 m/s 750 mmHg 90%
    01:00 +1°C° 0 mm 2 m/s 750 mmHg 89%
    02:00 +1°C° 0 mm 2 m/s 751 mmHg 89%
    03:00 +1°C° 0 mm 2 m/s 751 mmHg 89%
    04:00 +1°C° 0 mm 2 m/s 752 mmHg 89%
    05:00 -1°C° 0 mm 2 m/s 752 mmHg 90%
    06:00 -1°C° 0 mm 2 m/s 752 mmHg 90%
    07:00 +1°C° 0 mm 1 m/s 753 mmHg 91%
    08:00 +1°C° 0 mm 1 m/s 753 mmHg 89%
    09:00 +1°C° 0 mm 1 m/s 754 mmHg 87%
    10:00 +2°C° 0 mm 1 m/s 754 mmHg 85%
    11:00 +2°C° 0 mm 1 m/s 754 mmHg 84%
    12:00 +3°C° 0 mm 1 m/s 755 mmHg 83%
    13:00 +3°C° 0 mm 1 m/s 755 mmHg 81%
    14:00 +3°C° 0 mm 1 m/s 755 mmHg 85%
    15:00 +2°C° 0 mm 1 m/s 755 mmHg 88%
    16:00 +1°C° 0 mm 1 m/s 755 mmHg 92%
    17:00 +1°C° 0 mm 1 m/s 755 mmHg 92%
    18:00 -1°C° 0 mm 2 m/s 755 mmHg 93%
    19:00 -1°C° 0 mm 2 m/s 756 mmHg 93%
    20:00 -1°C° 0 mm 2 m/s 756 mmHg 93%
    21:00 -1°C° 0 mm 2 m/s 756 mmHg 93%
    22:00 -1°C° 0 mm 2 m/s 756 mmHg 93%
    23:00 -1°C° 0 mm 2 m/s 756 mmHg 93%

    Depois de amanhã, 13 Dezembro, Quinta-feira

    Tempo Temperatura Precipitação Vento Pressão Humidade
    00:00 -1°C° 0 mm 2 m/s 756 mmHg 93%
    01:00 -1°C° 0 mm 2 m/s 756 mmHg 93%
    02:00 -1°C° 0 mm 2 m/s 756 mmHg 93%
    03:00 -1°C° 0 mm 2 m/s 756 mmHg 93%
    04:00 -1°C° 0 mm 2 m/s 756 mmHg 93%
    05:00 -1°C° 0 mm 2 m/s 756 mmHg 92%
    06:00 -1°C° 0 mm 2 m/s 756 mmHg 90%
    07:00 -1°C° 0 mm 2 m/s 755 mmHg 89%
    08:00 -1°C° 0 mm 2 m/s 756 mmHg 87%
    09:00 -1°C° 0 mm 2 m/s 756 mmHg 85%
    10:00 -1°C° 0 mm 2 m/s 756 mmHg 83%
    11:00 -1°C° 0 mm 2 m/s 756 mmHg 81%
    12:00 +2°C° 0 mm 1 m/s 755 mmHg 80%
    13:00 +2°C° 0 mm 1 m/s 755 mmHg 78%
    14:00 +1°C° 0 mm 1 m/s 755 mmHg 81%
    15:00 +1°C° 0 mm 1 m/s 755 mmHg 84%
    16:00 +1°C° 0 mm 1 m/s 755 mmHg 87%
    17:00 0°C° 0 mm 1 m/s 755 mmHg 88%
    18:00 0°C° 0 mm 1 m/s 755 mmHg 89%
    19:00 0°C° 0 mm 1 m/s 755 mmHg 90%
    20:00 -2°C° 0 mm 2 m/s 756 mmHg 91%
    21:00 -3°C° 0 mm 2 m/s 756 mmHg 91%
    22:00 -3°C° 0 mm 2 m/s 756 mmHg 91%
    23:00 -3°C° 0 mm 2 m/s 756 mmHg 91%

    14 Dezembro, Sexta-feira

    Tempo Temperatura Precipitação Vento Pressão Humidade
    00:00 -3°C° 0 mm 2 m/s 756 mmHg 90%
    01:00 -3°C° 0 mm 2 m/s 756 mmHg 90%
    02:00 -1°C° 0 mm 1 m/s 756 mmHg 89%
    03:00 -1°C° 0 mm 1 m/s 756 mmHg 89%
    04:00 -1°C° 0 mm 1 m/s 756 mmHg 89%
    05:00 -1°C° 0 mm 1 m/s 756 mmHg 89%
    06:00 -1°C° 0 mm 1 m/s 756 mmHg 89%
    07:00 -1°C° 0 mm 1 m/s 756 mmHg 89%
    08:00 -3°C° 0 mm 2 m/s 757 mmHg 87%
    09:00 -3°C° 0 mm 2 m/s 757 mmHg 85%
    10:00 -2°C° 0 mm 2 m/s 757 mmHg 83%
    11:00 -2°C° 0 mm 2 m/s 757 mmHg 80%
    12:00 -2°C° 0 mm 2 m/s 758 mmHg 77%
    13:00 -2°C° 0 mm 2 m/s 758 mmHg 74%
    14:00 -2°C° 0 mm 2 m/s 758 mmHg 77%
    15:00 -3°C° 0 mm 2 m/s 758 mmHg 80%
    16:00 -1°C° 0 mm 1 m/s 758 mmHg 83%
    17:00 -3°C° 0 mm 2 m/s 758 mmHg 84%
    18:00 -3°C° 0 mm 2 m/s 758 mmHg 85%
    19:00 -4°C° 0 mm 2 m/s 758 mmHg 86%
    20:00 -4°C° 0 mm 2 m/s 758 mmHg 86%
    21:00 -4°C° 0 mm 2 m/s 759 mmHg 86%
    22:00 -2°C° 0 mm 1 m/s 759 mmHg 86%
    23:00 -2°C° 0 mm 1 m/s 759 mmHg 87%

    15 Dezembro, Sábado

    Tempo Temperatura Precipitação Vento Pressão Humidade
    00:00 -2°C° 0 mm 1 m/s 759 mmHg 87%
    01:00 -2°C° 0 mm 1 m/s 759 mmHg 87%
    02:00 -2°C° 0 mm 1 m/s 759 mmHg 88%
    03:00 -2°C° 0 mm 1 m/s 759 mmHg 88%
    04:00 -4°C° 0 mm 2 m/s 759 mmHg 89%
    05:00 -4°C° 0 mm 2 m/s 759 mmHg 90%
    06:00 -2°C° 0 mm 1 m/s 759 mmHg 90%
    07:00 -2°C° 0 mm 1 m/s 760 mmHg 91%
    08:00 -2°C° 0 mm 1 m/s 760 mmHg 90%
    09:00 -1°C° 0 mm 1 m/s 760 mmHg 89%
    10:00 -1°C° 0 mm 1 m/s 761 mmHg 88%
    11:00 0°C° 0 mm 1 m/s 761 mmHg 87%
    12:00 -2°C° 0 mm 2 m/s 761 mmHg 85%
    13:00 -2°C° 0 mm 2 m/s 761 mmHg 84%
    14:00 -2°C° 0 mm 2 m/s 761 mmHg 87%
    15:00 -3°C° 0 mm 2 m/s 761 mmHg 90%
    16:00 -3°C° 0 mm 2 m/s 761 mmHg 93%
    17:00 -3°C° 0 mm 2 m/s 761 mmHg 93%
    18:00 -3°C° 0 mm 2 m/s 761 mmHg 94%
    19:00 -3°C° 0 mm 2 m/s 761 mmHg 94%
    20:00 -3°C° 0 mm 2 m/s 761 mmHg 94%
    21:00 -3°C° 0 mm 2 m/s 761 mmHg 94%
    22:00 -3°C° 0 mm 2 m/s 761 mmHg 94%
    23:00 -3°C° 0 mm 2 m/s 761 mmHg 93%

    16 Dezembro, Domingo

    Tempo Temperatura Precipitação Vento Pressão Humidade
    00:00 -3°C° 0 mm 2 m/s 761 mmHg 93%
    01:00 -3°C° 0 mm 2 m/s 761 mmHg 92%
    02:00 -4°C° 0 mm 2 m/s 761 mmHg 91%
    03:00 -5°C° 0 mm 3 m/s 761 mmHg 91%
    04:00 -5°C° 0 mm 3 m/s 760 mmHg 90%
    05:00 -5°C° 0 mm 3 m/s 760 mmHg 89%
    06:00 -5°C° 0 mm 3 m/s 760 mmHg 88%
    07:00 -5°C° 0 mm 4 m/s 759 mmHg 87%
    08:00 -5°C° 0 mm 4 m/s 759 mmHg 83%
    09:00 -4°C° 0 mm 4 m/s 759 mmHg 80%
    10:00 -5°C° 0 mm 5 m/s 759 mmHg 77%
    11:00 -5°C° 0 mm 5 m/s 758 mmHg 75%
    12:00 -4°C° 0 mm 5 m/s 758 mmHg 74%
    13:00 -4°C° 0 mm 6 m/s 757 mmHg 72%
    14:00 -4°C° 0 mm 6 m/s 757 mmHg 74%
    15:00 -4°C° 0 mm 6 m/s 756 mmHg 76%
    16:00 -5°C° 0 mm 6 m/s 756 mmHg 78%
    17:00 -5°C° 0 mm 6 m/s 756 mmHg 78%
    18:00 -5°C° 0 mm 6 m/s 755 mmHg 78%
    19:00 -4°C° 0 mm 6 m/s 755 mmHg 78%
    20:00 -4°C° 0 mm 6 m/s 755 mmHg 78%
    21:00 -4°C° 0 mm 6 m/s 754 mmHg 77%
    22:00 -4°C° 0 mm 6 m/s 754 mmHg 77%
    23:00 -4°C° 0 mm 5 m/s 754 mmHg 78%
    Mostrar mais